Wind_Speed
25 26 26 26 28 29 30 30 31 31 32 33 33 33 34 35 37 38 39 39 40 40 40 41 41 43 43 43 43 44 44 44 45 45 45 45 46 46 46 46 46 46 46 47
25 26 26 27 28 29 30 32 32 33 33 34 34 34 35 35 36 37 38 39 40 40 41 42 42 43 43 44 44 44 44 45 45 45 46 46 47 47 47 47 47 47 47 48
26 26 26 27 28 29 30 31 32 34 34 35 35 35 35 36 37 37 37 38 39 40 40 41 42 43 43 44 44 44 45 45 45 45 46 48 48 48 48 48 48 48 48 48
27 26 26 27 28 29 30 31 32 33 35 35 35 37 35 35 36 36 36 36 37 39 39 40 41 42 42 43 44 44 45 45 45 46 48 48 49 49 49 49 49 49 49 50
27 27 27 28 28 29 30 31 32 34 35 36 36 38 36 35 35 35 35 36 37 38 39 39 40 41 42 43 44 44 46 46 47 47 49 49 49 50 50 49 50 50 50 50
27 27 28 28 28 29 29 30 32 34 35 37 36 38 37 35 35 35 35 35 36 37 38 39 40 41 42 43 44 45 46 47 48 48 49 49 49 50 51 51 51 51 51 51
28 28 28 29 29 29 30 30 32 34 35 36 35 37 36 34 34 34 35 35 36 36 37 38 39 40 41 43 44 45 46 47 48 48 49 50 51 51 51 52 52 53 52 52
28 28 28 29 29 30 30 31 32 34 35 37 36 37 36 34 34 34 35 36 36 37 38 39 40 41 41 43 44 45 45 46 48 49 50 51 51 52 52 53 53 53 53 52
28 28 28 29 29 30 30 31 32 34 36 37 37 37 36 36 36 35 35 36 37 38 39 40 40 41 42 43 44 44 45 46 47 48 50 50 51 51 52 53 53 53 53 53
28 29 28 29 30 30 31 31 31 33 36 37 37 36 36 36 36 37 36 36 37 38 39 40 41 41 42 43 43 45 45 45 46 47 49 50 50 51 51 51 51 51 51 52
29 30 30 29 29 30 30 31 31 33 35 37 38 37 36 36 36 37 38 38 38 38 39 39 40 41 42 43 44 44 44 44 45 46 47 48 49 50 50 50 50 50 51 52
30 31 31 30 30 30 31 32 32 34 35 37 39 37 36 37 37 38 39 39 38 39 40 40 40 41 42 43 43 44 44 44 44 45 45 46 47 49 50 50 51 51 52 54
31 32 32 32 31 31 32 33 34 35 36 37 38 37 36 37 37 37 38 38 39 39 39 39 40 40 41 42 43 43 43 43 44 44 44 45 47 48 49 51 51 53 53 54
32 32 32 32 32 32 33 33 34 35 36 37 36 35 35 36 37 37 37 38 37 38 38 39 39 40 40 42 43 43 43 44 44 44 44 45 46 48 49 50 51 51 52 52
33 34 33 33 33 34 34 34 34 35 36 37 36 35 34 34 36 37 36 36 36 37 38 38 38 40 41 42 43 44 44 45 45 44 44 45 45 47 48 49 50 50 51 51
34 35 35 35 35 35 35 34 34 34 34 35 35 34 33 34 35 36 36 36 37 37 38 39 39 40 41 42 43 44 44 45 45 46 45 46 46 46 47 48 49 50 50 50
35 35 36 35 34 35 35 33 33 34 34 34 35 34 34 33 34 35 35 35 36 38 39 39 40 40 41 42 42 43 43 44 45 45 45 46 45 45 46 48 49 49 49 50
34 35 36 35 35 35 34 32 32 33 33 34 35 34 34 34 34 35 35 36 36 37 38 39 40 41 41 41 42 43 43 44 44 44 44 44 44 44 45 46 47 47 48 49
33 33 34 35 36 35 32 32 32 33 33 34 34 34 35 35 35 35 35 36 37 37 38 39 39 40 40 40 41 41 42 43 43 43 44 44 44 44 45 45 46 47 47 48
32 32 34 35 36 36 34 33 33 34 35 34 34 34 35 35 36 35 35 36 36 36 36 37 37 38 38 39 39 39 40 41 42 42 43 44 44 45 45 46 47 47 48 48
33 33 34 34 36 36 35 34 35 36 36 36 35 35 35 35 36 36 36 35 35 35 35 35 36 36 37 38 38 39 39 40 40 41 42 43 44 44 45 45 46 47 48 49
34 34 34 35 36 36 36 36 36 37 37 36 36 36 36 35 35 35 35 35 34 35 35 35 36 36 37 38 38 38 39 39 41 41 42 43 44 45 45 45 45 46 47 48
34 35 36 36 36 37 37 37 37 37 37 37 37 37 37 36 36 36 35 35 34 35 35 36 36 37 37 38 38 39 39 39 40 41 42 43 43 44 45 45 45 45 45 46
35 36 36 37 36 37 37 38 38 38 38 37 37 37 37 37 36 36 36 35 36 36 37 37 37 37 37 38 38 39 39 40 40 41 41 41 41 42 44 45 45 45 45 45
35 36 37 37 36 37 37 38 38 38 38 37 37 38 38 38 37 36 36 35 36 37 37 37 37 37 38 38 38 39 39 39 40 40 40 41 41 41 42 43 44 44 44 45
35 36 37 37 37 38 37 37 37 37 37 37 38 38 38 37 37 37 37 37 37 37 37 37 37 37 37 38 38 39 39 39 39 40 40 40 40 41 42 43 44 44 44 45
Wind_Direction
276 274 272 271 269 269 269 269 269 268 267 267 264 263 262 262 261 261 261 260 260 257 257 255 254 252 251 251 252 252 253 253 254 255 255 256 256 256 256 257 256 256 256 256
276 275 275 274 272 271 270 270 270 269 269 268 266 264 263 263 264 264 263 263 261 259 258 257 255 254 253 253 252 253 254 254 255 256 256 256 256 256 256 257 257 256 256 257
279 279 277 276 274 273 272 272 271 271 271 270 269 266 264 263 264 264 264 263 262 260 259 257 255 254 254 254 254 254 255 255 256 256 256 256 256 256 256 256 257 256 257 258
280 280 279 278 277 277 275 274 274 273 273 272 271 270 266 265 265 265 264 264 262 260 259 257 256 255 255 255 255 256 256 257 257 257 257 257 256 257 257 257 257 257 258 259
282 282 281 280 280 279 279 277 275 274 273 272 271 272 269 267 266 265 265 265 263 260 259 258 257 256 256 256 256 256 257 257 258 258 258 258 257 257 257 258 259 259 259 260
283 283 283 282 282 281 281 279 278 276 275 274 273 273 273 270 268 266 265 265 265 262 260 259 258 258 258 258 258 258 259 259 259 259 258 258 258 258 258 258 259 260 260 260
284 282 283 283 283 282 281 280 280 279 278 277 276 274 274 272 270 269 268 267 266 264 262 261 260 259 258 258 259 259 260 261 261 261 259 259 259 259 258 258 258 259 260 261
287 284 283 284 284 283 281 279 279 280 281 280 277 275 275 274 273 272 271 269 268 266 264 263 262 261 261 260 261 261 261 262 262 262 261 260 260 259 259 258 258 259 260 260
291 289 287 285 284 283 281 280 280 280 281 281 280 278 276 275 274 273 273 272 271 268 267 265 264 263 262 263 262 263 263 264 263 262 262 261 261 260 260 260 259 258 259 259
292 291 290 288 285 282 282 282 282 280 280 282 281 281 280 277 276 274 274 274 273 271 269 267 265 264 264 265 265 265 265 265 266 265 263 263 263 262 261 260 260 259 258 258
293 292 291 290 288 286 284 282 282 281 280 282 283 282 282 280 277 276 275 274 274 272 270 267 265 264 265 266 266 266 267 266 267 267 266 265 264 264 262 260 259 258 258 258
293 292 292 291 288 286 285 284 283 282 282 281 282 283 282 280 278 277 276 276 275 273 269 267 266 266 265 266 267 267 268 268 268 268 267 266 265 264 262 261 260 259 259 259
292 293 294 292 290 288 287 286 283 282 282 282 282 284 282 280 279 277 276 276 275 272 271 269 268 267 266 265 267 268 269 270 270 269 267 266 266 265 263 261 261 261 260 260
290 291 292 291 290 289 287 286 284 283 282 283 284 285 284 282 279 278 277 275 273 271 271 270 268 267 267 266 267 268 269 270 270 269 268 267 267 266 265 263 262 261 261 260
289 291 291 290 289 288 286 285 283 283 283 283 285 285 286 283 279 279 278 275 273 271 271 272 271 269 268 267 267 268 269 270 269 270 270 269 268 266 265 265 264 264 263 262
289 291 290 289 289 288 286 286 285 284 284 285 286 286 287 285 281 280 279 277 275 273 273 273 272 271 270 269 269 269 270 270 271 272 271 270 269 268 266 266 266 265 265 263
290 291 291 291 290 288 287 289 288 285 285 287 288 289 288 286 283 283 281 280 278 276 275 275 274 273 272 271 270 270 271 272 272 272 271 270 269 269 268 266 266 265 264 264
291 292 292 292 291 291 293 290 288 287 287 288 288 288 288 286 285 284 283 281 280 278 277 276 276 275 273 272 272 271 271 272 272 271 270 269 268 268 268 267 266 265 265 265
291 291 291 291 291 292 292 291 291 290 289 289 289 288 288 287 287 286 285 283 281 280 279 278 277 275 273 273 273 273 273 272 272 271 271 270 268 268 268 268 267 267 266 266
291 291 291 291 291 293 294 292 291 290 290 291 289 288 288 287 287 287 286 284 282 281 281 280 278 276 275 274 274 273 273 273 272 271 271 270 269 268 268 268 268 268 268 268
291 291 291 291 292 292 293 293 292 290 292 291 290 289 290 289 288 288 287 285 283 282 282 281 279 277 276 275 275 275 274 274 273 273 273 272 270 269 268 269 269 269 270 270
292 291 290 291 292 293 292 292 291 290 289 290 289 289 290 290 289 289 288 285 283 281 281 280 280 278 277 276 276 276 275 275 274 274 274 273 272 271 269 270 271 271 272 272
292 291 290 290 291 290 290 289 289 289 288 288 288 288 289 290 289 289 288 285 283 281 281 280 280 279 278 277 277 276 276 276 276 276 275 275 274 272 271 271 271 272 273 273
293 292 291 291 290 289 288 287 287 287 287 287 287 287 288 288 289 288 287 286 283 282 281 281 281 280 279 279 278 277 277 277 277 277 276 275 274 274 273 273 273 273 273 274
294 293 292 291 290 289 287 286 287 287 287 287 287 286 287 287 287 286 286 285 284 284 283 283 283 282 281 280 279 279 279 278 278 277 277 276 276 276 276 275 274 274 273 274
294 293 292 292 291 290 289 287 287 287 287 286 286 286 286 286 286 286 285 285 285 284 284 283 283 283 282 281 281 280 279 279 278 278 278 278 278 278 277 277 275 275 274 274
Height
5698 5698 5696 5696 5695 5694 5693 5692 5692 5692 5691 5690 5689 5690 5690 5690 5691 5691 5691 5691 5692 5692 5693 5694 5695 5696 5698 5700 5701 5703 5705 5707 5708 5709 5710 5711 5712 5713 5714 5716 5717 5718 5720 5721
5692 5690 5690 5688 5687 5685 5684 5684 5683 5683 5682 5680 5680 5680 5681 5680 5681 5681 5681 5682 5682 5682 5682 5683 5684 5685 5687 5689 5690 5692 5693 5695 5696 5697 5698 5699 5700 5701 5702 5704 5705 5706 5708 5709
5683 5683 5681 5680 5678 5677 5676 5675 5675 5674 5672 5671 5670 5671 5672 5671 5671 5671 5671 5671 5671 5671 5672 5672 5673 5674 5676 5677 5679 5681 5682 5683 5684 5685 5685 5686 5687 5688 5690 5692 5693 5694 5695 5697
5675 5674 5673 5671 5670 5669 5668 5667 5666 5664 5662 5661 5661 5659 5663 5662 5661 5661 5661 5661 5661 5661 5661 5661 5662 5663 5665 5666 5667 5668 5670 5671 5672 5672 5673 5674 5675 5676 5678 5679 5680 5681 5682 5684
5667 5667 5665 5664 5663 5660 5659 5658 5656 5654 5653 5652 5651 5649 5652 5652 5651 5651 5651 5651 5650 5650 5650 5651 5651 5653 5654 5655 5655 5656 5657 5658 5659 5659 5660 5661 5662 5664 5665 5666 5667 5668 5669 5670
5660 5658 5656 5655 5654 5652 5650 5649 5647 5645 5643 5642 5642 5640 5640 5641 5641 5641 5641 5640 5640 5640 5640 5640 5641 5641 5642 5643 5644 5644 5645 5646 5646 5646 5647 5648 5649 5650 5651 5653 5654 5655 5655 5656
5651 5650 5648 5646 5645 5644 5642 5640 5637 5634 5633 5632 5632 5629 5631 5631 5631 5630 5630 5630 5629 5629 5629 5629 5629 5630 5630 5631 5632 5632 5632 5633 5633 5633 5634 5635 5635 5637 5638 5639 5640 5641 5641 5641
5642 5641 5640 5638 5636 5634 5632 5631 5629 5626 5624 5623 5622 5620 5622 5622 5621 5619 5619 5618 5618 5617 5617 5618 5618 5618 5619 5619 5619 5619 5619 5620 5620 5620 5620 5621 5621 5622 5623 5624 5625 5626 5626 5627
5633 5632 5631 5629 5627 5625 5623 5621 5620 5617 5614 5612 5611 5611 5612 5611 5610 5609 5608 5607 5606 5606 5605 5605 5606 5606 5606 5607 5606 5606 5606 5606 5607 5607 5607 5607 5607 5608 5609 5609 5610 5610 5611 5612
5625 5623 5622 5620 5618 5615 5614 5612 5610 5607 5603 5601 5601 5601 5601 5600 5599 5598 5597 5595 5594 5594 5593 5593 5593 5594 5594 5594 5594 5594 5593 5593 5593 5593 5593 5593 5593 5593 5594 5594 5595 5595 5596 5597
5617 5615 5613 5611 5609 5607 5605 5603 5600 5597 5595 5593 5590 5593 5591 5589 5588 5587 5585 5584 5583 5582 5581 5581 5580 5581 5581 5581 5581 5581 5580 5580 5580 5579 5579 5578 5578 5578 5579 5579 5580 5581 5581 5582
5609 5606 5604 5603 5600 5597 5595 5594 5591 5589 5586 5583 5580 5583 5581 5578 5576 5575 5574 5572 5571 5570 5569 5568 5568 5568 5569 5568 5568 5568 5567 5567 5566 5565 5565 5564 5564 5564 5564 5565 5566 5566 5567 5567
5600 5598 5595 5593 5593 5589 5586 5584 5581 5578 5576 5573 5570 5573 5570 5567 5565 5563 5562 5560 5559 5558 5556 5556 5556 5556 5556 5556 5555 5555 5554 5553 5552 5552 5551 5550 5550 5550 5550 5550 5551 5551 5552 5552
5591 5589 5587 5585 5581 5578 5576 5574 5571 5568 5564 5562 5561 5561 5560 5556 5554 5552 5550 5548 5547 5546 5545 5544 5544 5543 5543 5543 5542 5542 5541 5540 5539 5538 5537 5537 5536 5536 5536 5536 5536 5536 5536 5537
5581 5579 5577 5575 5572 5569 5566 5564 5561 5557 5555 5552 5552 5550 5549 5546 5543 5541 5539 5537 5536 5535 5534 5533 5532 5531 5530 5530 5529 5529 5528 5527 5526 5525 5524 5523 5522 5522 5522 5521 5522 5521 5521 5521
5571 5569 5567 5565 5562 5558 5556 5554 5551 5548 5545 5542 5540 5539 5538 5535 5532 5530 5528 5526 5525 5524 5523 5521 5520 5519 5518 5517 5516 5515 5514 5513 5512 5512 5511 5509 5509 5508 5508 5508 5507 5507 5506 5506
5562 5559 5556 5554 5551 5547 5546 5545 5541 5538 5536 5533 5530 5530 5526 5524 5521 5519 5517 5515 5514 5513 5511 5510 5508 5506 5505 5504 5503 5502 5501 5500 5499 5498 5497 5496 5494 5494 5494 5494 5493 5493 5492 5491
5553 5549 5545 5543 5541 5537 5539 5534 5531 5528 5526 5523 5520 5518 5515 5513 5511 5508 5506 5505 5503 5501 5499 5497 5495 5494 5493 5491 5490 5489 5488 5486 5485 5484 5483 5482 5481 5481 5480 5480 5479 5478 5477 5477
5543 5540 5536 5533 5529 5527 5528 5524 5520 5517 5516 5513 5510 5507 5504 5502 5500 5498 5495 5493 5491 5489 5487 5485 5483 5482 5480 5479 5478 5476 5475 5473 5472 5471 5470 5469 5468 5467 5467 5466 5465 5464 5463 5463
5534 5530 5528 5523 5519 5517 5518 5514 5510 5507 5505 5503 5500 5497 5494 5492 5490 5488 5485 5482 5480 5478 5475 5473 5472 5470 5468 5467 5466 5464 5463 5461 5459 5458 5457 5456 5455 5454 5453 5453 5452 5450 5450 5449
5524 5521 5518 5514 5509 5508 5507 5503 5500 5498 5497 5492 5489 5486 5484 5482 5480 5477 5474 5471 5469 5467 5465 5463 5461 5459 5457 5455 5454 5452 5451 5449 5447 5446 5444 5443 5441 5440 5440 5439 5438 5437 5436 5435
5514 5511 5508 5504 5501 5501 5496 5493 5490 5488 5484 5481 5478 5476 5473 5471 5468 5465 5463 5460 5458 5456 5454 5452 5450 5447 5446 5444 5442 5441 5439 5437 5435 5433 5432 5430 5428 5427 5426 5425 5424 5423 5421 5420
5505 5502 5498 5496 5494 5489 5485 5482 5479 5476 5473 5470 5467 5465 5463 5460 5457 5455 5452 5450 5447 5445 5443 5441 5438 5436 5434 5432 5430 5429 5427 5425 5423 5421 5419 5417 5415 5413 5412 5411 5410 5409 5407 5406
5494 5491 5487 5484 5482 5478 5474 5471 5468 5465 5462 5459 5457 5454 5452 5449 5447 5444 5441 5439 5436 5434 5432 5429 5427 5425 5422 5420 5418 5416 5414 5412 5410 5408 5406 5404 5402 5400 5398 5397 5396 5395 5393 5392
5484 5480 5476 5473 5470 5467 5463 5460 5457 5454 5451 5448 5446 5443 5441 5438 5436 5433 5430 5428 5425 5423 5421 5418 5415 5413 5410 5408 5406 5404 5402 5400 5398 5395 5393 5391 5389 5387 5385 5383 5382 5380 5379 5377
5473 5469 5465 5462 5459 5455 5452 5449 5446 5443 5440 5437 5434 5432 5429 5427 5424 5421 5419 5416 5414 5412 5409 5406 5404 5401 5399 5396 5394 5392 5390 5387 5385 5383 5380 5378 5376 5374 5372 5370 5368 5365 5364 5362